Location: Wapato
(46.4478°N, 120.4212°W)
Time: 22:31:33
(UTC+00:00)

S-56A Canister/Altair - Pass Details

Date: 21 May 2026
Orbit: 633 x 2484 km, 38.9° (Epoch: 7 June)

Event Time Altitude Azimuth Distance (km) Brightness Sun altitude
Rises 06:58:50 0° 264° (W) 2,923 10.6 -22.0°
Reaches altitude 10° 07:01:35 10° 246° (WSW) 2,016 9.6 -22.1°
Enters shadow 07:01:46 11° 244° (WSW) 1,968 9.5 -22.1°
